Retour au catalogue

STARLINK-11302

ActifCommunicationsVLEO
NORAD 61204·PAYLOAD·🇺🇸 United States

Lancé Sep 20, 2024 depuis Vandenberg Space Force Base

Loading…

Prochains Passages (prochaines 24 heures)

TLE

FraisSource: CelesTrak SupGP

Époque: Sep 15, 2026, 03:32 UTC

1 61204C 24171E   26258.14770833  .00048205  00000+0  39704-3 0  2586
2 61204  53.1566 322.2634 0001200  84.2074 353.1220 15.69687562    13

Suivez STARLINK-11302 en temps réel avec AllMySat

Download on the App Store